Regional Weather Roundup
Issued by NWS State College, PA

Home | Current Version | Previous Version | Text Only | Print | Product List | Glossary Off
Versions: 1 2 3 4 5 6 7 8 9 10 11 12 13 14 15 16 17 18 19 20 21 22 23 24 25 26 27 28 29 30 31 32 33 34 35 36 37 38 39 40 41 42 43 44 45 46 47 48 49 50

000
ASUS41 KCTP 201810
RWRCTP

REGIONAL WEATHER ROUNDUP
NATIONAL WEATHER SERVICE STATE COLLEGE PA
100 PM EST SAT DEC 20 2014

Note: "fair" indicates few or no clouds below 12,000 feet with no
significant weather and/or obstructions to visibility.

* = STATION THAT DOES NOT REPORT PRECIPITATION /E.G. RAIN...SNOW...ETC/
    THUNDER OR FOG.

PAZ002>004-007>009-013>016-020>023-029>032-201900-
WESTERN PENNSYLVANIA

CITY           SKY/WX    TMP DP  RH WIND       PRES   REMARKS
ERIE           CLOUDY    31  21  66 CALM      30.26F
MEADVILLE      CLOUDY    28  20  71 CALM      30.21F
FRANKLIN*      CLOUDY    27  18  69 W5        30.22F
NEW CASTLE       N/A     29  20  69 CALM      30.25F
BEAVER COUNTY  PTSUNNY   28  19  69 CALM      30.22F
BUTLER*        CLOUDY    28  19  69 CALM      30.23F
PITTSBURGH INT CLOUDY    29  20  69 CALM      30.22F
PITTSBURGH     MOSUNNY   29  16  58 SW3       30.21F
INDIANA*       CLOUDY    28  21  74 CALM      30.25F
LATROBE        PTSUNNY   28  19  69 CALM      30.25F
WASHINGTON CO* NOT AVBL
$$

PAZ004>006-010>012-017>019-024>028-033>037-041-042-045-046-049>053-201900-
CENTRAL PENNSYLVANIA

CITY           SKY/WX    TMP DP  RH WIND       PRES   REMARKS
BRADFORD       CLOUDY    24  19  81 CALM      30.16F
DUBOIS         CLOUDY    26  20  77 CALM      30.17F
CLEARFIELD     CLOUDY    27  19  72 N3        30.20F
JOHNSTOWN      PTSUNNY   26  18  71 SW3       30.14F
ALTOONA        PTSUNNY   30  21  69 CALM      30.20S
STATE COLLEGE  CLOUDY    28  19  69 VRB6      30.22F
WILLIAMSPORT   CLOUDY    33  20  58 NW6       30.24F
SELINSGROVE    CLOUDY    33  21  61 CALM      30.25F
FT INDIANTOWN  CLOUDY    33  20  59 S3        30.25F
CAPITAL CITY   CLOUDY    34  21  59 CALM      30.27F
HARRISBURG     CLOUDY    34  21  59 W3        30.26F
YORK           CLOUDY    34  20  56 W3        30.26F
$$

PAZ038>040-043-044-047-048-054-055-060>062-067>071-201900-
EASTERN PENNSYLVANIA

CITY           SKY/WX    TMP DP  RH WIND       PRES   REMARKS
SCRANTON       CLOUDY    31  19  61 N7        30.21F
MOUNT POCONO   CLOUDY    25  18  74 NW5       30.15F
ALLENTOWN      CLOUDY    33  22  63 N3        30.24F
QUAKERTOWN*    CLOUDY    32  23  69 CALM      30.25S
READING        CLOUDY    34  20  56 CALM      30.25F
LANCASTER      CLOUDY    33  20  58 CALM      30.25F
COATESVILLE    CLOUDY    32  23  69 N3        30.25S
POTTSTOWN      CLOUDY    33  21  61 VRB3      30.27S
BLUE BELL      CLOUDY    34  23  64 CALM      30.26S
DOYLESTOWN     CLOUDY    31  21  66 N3        30.24F
WILLOW GROVE   NOT AVBL
NORTH PHILA    CLOUDY    35  19  52 CALM      30.29S
PHILADELPHIA   CLOUDY    35  20  54 NW6       30.29S
$$



USA.gov is the U.S. government's official web portal to all federal, state and local government web resources and services.